Wetbulb
74.44 73.00 72.54 73.08 72.46 72.90 73.29 73.90 75.74 75.37 74.68 74.32 76.48 76.78 76.99 77.89 77.48 76.93 77.36 76.12 76.32 74.56
74.14 73.57 72.97 73.49 73.96 73.50 75.26 75.00 75.62 75.76 75.91 75.95 76.28 76.50 76.52 75.40 76.96 76.35 77.22 77.35 76.78 76.42
74.00 74.06 74.02 73.94 73.87 74.25 75.04 75.44 75.89 75.70 75.87 76.22 76.36 76.18 76.46 75.82 76.59 76.25 75.93 76.77 76.10 76.70
73.89 74.00 74.03 73.36 73.92 74.71 75.28 75.68 75.82 76.19 76.62 76.14 74.59 74.66 74.88 74.79 74.77 74.78 76.60 75.95 74.94 74.84
73.83 73.92 73.69 73.40 73.82 74.67 74.72 75.38 75.74 75.90 75.78 75.73 75.51 75.25 74.32 73.86 75.21 75.85 75.51 75.38 74.36 74.81
73.29 73.35 73.32 73.55 73.86 74.18 74.84 75.02 75.38 75.74 75.69 75.74 75.66 74.97 75.05 75.26 75.51 75.32 75.21 75.43 75.17 75.01
73.32 73.49 73.58 74.26 74.54 74.49 75.14 75.10 75.27 75.59 75.71 75.60 75.48 75.57 75.43 75.23 75.29 74.94 74.68 75.32 75.32 75.48
74.26 74.52 74.71 74.64 74.70 75.09 75.02 75.11 75.68 75.34 75.16 74.96 74.84 74.33 74.89 74.73 74.40 74.76 75.08 75.69 75.86 75.96
74.33 74.30 74.57 74.74 74.91 74.80 74.91 75.12 75.40 74.86 74.86 74.92 74.64 69.23 67.81 71.16 74.81 75.26 75.07 74.99 75.79 76.43
74.35 73.93 74.33 74.74 74.64 74.74 74.71 75.10 74.62 74.80 75.45 75.56 76.35 66.96 65.72 67.84 73.81 74.92 75.16 75.32 74.86 75.17
74.62 74.39 74.82 74.90 74.85 75.35 75.60 75.59 75.61 75.84 76.20 76.25 73.59 62.18 62.66 65.10 73.37 73.60 74.45 74.56 74.80 74.80
74.68 74.41 74.79 74.35 74.72 75.60 75.62 75.59 75.70 75.98 75.55 74.78 69.81 58.82 59.18 65.85 71.49 70.81 71.33 71.75 72.20 72.38
75.12 74.76 74.54 74.99 75.37 75.89 75.51 75.36 74.23 73.13 72.56 66.70 67.26 56.71 56.25 61.32 66.45 65.49 65.42 66.70 67.46 63.76
74.38 74.57 74.87 75.04 75.26 74.60 74.02 73.36 72.22 69.54 67.73 66.45 64.87 60.13 53.81 54.49 64.10 61.76 60.75 62.00 63.16 64.59
MSLP
1014.76 1015.08 1015.40 1015.61 1015.45 1015.62 1015.84 1015.92 1016.21 1016.38 1016.47 1016.47 1016.57 1016.66 1016.61 1016.81 1016.92 1017.01 1017.08 1017.17 1017.23 1017.12
1014.22 1014.70 1015.02 1015.41 1015.61 1015.67 1015.88 1015.87 1015.98 1016.00 1016.24 1016.17 1016.28 1016.37 1016.51 1016.58 1016.80 1016.73 1016.80 1016.95 1016.92 1016.98
1013.49 1014.05 1014.50 1014.96 1015.22 1015.41 1015.61 1015.76 1015.84 1015.87 1015.93 1015.90 1016.05 1016.22 1016.47 1016.57 1016.59 1016.75 1016.57 1016.56 1016.57 1016.64
1013.00 1013.51 1013.95 1014.30 1014.70 1014.98 1015.26 1015.49 1015.64 1015.64 1015.72 1015.62 1015.93 1016.03 1016.22 1016.43 1016.52 1016.52 1016.38 1016.39 1016.44 1016.39
1012.53 1013.05 1013.43 1013.82 1014.16 1014.45 1014.80 1015.12 1015.24 1015.37 1015.61 1015.78 1015.77 1015.96 1016.02 1016.04 1015.88 1016.06 1016.04 1016.14 1016.41 1016.12
1011.95 1012.44 1012.80 1013.22 1013.71 1013.92 1014.25 1014.59 1014.78 1014.88 1015.16 1015.35 1015.63 1015.75 1015.83 1015.87 1015.78 1015.75 1015.73 1015.74 1015.68 1015.58
1011.36 1011.75 1012.07 1012.55 1013.06 1013.37 1013.69 1014.03 1014.39 1014.59 1014.84 1015.02 1015.11 1015.19 1015.34 1015.46 1015.51 1015.47 1015.32 1015.34 1015.33 1015.28
1010.95 1011.43 1011.77 1012.04 1012.37 1012.72 1013.07 1013.38 1013.73 1014.02 1014.27 1014.51 1014.59 1014.56 1014.75 1014.82 1014.84 1014.84 1014.68 1014.65 1014.63 1014.46
1010.53 1011.03 1011.27 1011.66 1011.93 1012.34 1012.68 1012.96 1013.25 1013.40 1013.65 1013.84 1013.97 1014.06 1014.31 1014.50 1014.38 1014.31 1014.12 1013.89 1013.88 1013.94
1010.35 1010.63 1010.95 1011.30 1011.60 1011.93 1012.21 1012.49 1012.73 1012.86 1013.00 1013.11 1013.22 1013.55 1013.86 1013.98 1013.99 1013.75 1013.59 1013.48 1013.50 1013.28
1009.66 1010.15 1010.61 1010.97 1011.27 1011.40 1011.61 1011.83 1012.08 1012.40 1012.67 1012.92 1013.44 1013.68 1013.76 1013.61 1013.48 1013.37 1013.23 1013.12 1013.19 1013.05
1009.01 1009.46 1009.88 1010.38 1010.76 1011.00 1011.32 1011.60 1011.91 1012.13 1012.43 1012.76 1013.75 1014.02 1013.92 1013.61 1013.32 1013.16 1013.05 1013.02 1012.95 1012.76
1008.39 1008.75 1009.46 1009.90 1010.00 1010.57 1011.12 1011.34 1011.85 1012.37 1012.89 1013.27 1013.73 1014.18 1014.08 1013.78 1013.34 1013.12 1012.77 1012.93 1012.85 1012.86
1007.83 1008.21 1008.58 1009.23 1010.12 1010.33 1010.89 1011.42 1011.74 1012.27 1013.16 1013.78 1014.03 1014.47 1014.48 1014.30 1013.75 1013.62 1013.25 1012.64 1012.24 1012.08
Wind_Speed
11 8 8 8 6 6 5 5 4 6 6 7 7 6 6 5 4 4 5 6 6 4
12 11 9 9 6 5 5 4 5 5 5 6 7 7 6 6 5 4 5 4 5 5
13 13 11 9 9 8 7 5 5 6 6 6 5 5 5 5 4 6 6 4 5 5
12 13 12 10 10 9 8 7 7 7 7 4 4 4 4 6 6 8 5 4 4 7
12 12 12 11 11 10 9 9 8 7 5 5 5 5 6 7 6 7 6 6 7 8
12 12 13 12 12 11 10 9 8 6 7 7 7 7 8 8 8 8 9 9 9 9
12 13 13 12 12 12 11 10 9 9 8 7 8 9 8 8 9 10 10 10 10 10
10 11 11 11 12 12 12 11 10 9 9 10 9 8 9 10 10 10 11 10 11 11
10 11 11 11 11 10 11 10 10 10 10 10 7 7 11 10 9 10 10 11 11 11
10 10 11 10 10 10 11 10 11 11 10 11 10 6 6 9 10 9 9 10 10 10
11 11 10 10 11 11 10 11 10 9 9 7 1 5 3 3 6 6 8 7 9 9
12 12 12 12 12 10 8 7 7 6 6 6 6 6 6 1 3 5 7 8 9 10
11 12 11 11 11 8 7 7 5 4 4 4 8 5 6 3 2 4 5 7 8 8
12 11 10 10 7 7 7 7 8 8 5 5 4 6 5 2 2 3 4 6 7 7
Wind_Direction
200 202 210 214 211 206 215 225 213 216 228 238 238 235 241 253 246 246 224 215 216 237
192 203 207 213 213 222 230 240 229 222 238 239 248 243 238 247 246 247 256 244 220 234
192 197 199 201 211 215 220 219 223 221 234 236 244 233 242 246 265 257 251 230 245 248
198 198 199 200 207 214 219 221 221 222 236 221 200 206 240 255 260 258 250 231 231 267
197 195 203 207 207 201 210 213 225 237 216 221 228 230 232 247 258 259 265 251 250 256
200 196 207 211 212 203 205 211 208 208 215 213 223 232 234 247 263 269 270 266 259 257
200 204 205 204 207 208 206 209 214 218 227 239 241 241 245 250 259 265 263 265 265 262
204 210 208 202 204 204 204 209 214 220 230 239 239 239 242 250 255 256 259 261 258 253
196 201 203 206 202 203 205 208 213 220 224 228 235 218 220 242 257 253 251 258 261 262
199 199 203 204 201 202 204 204 211 214 214 222 227 181 218 221 249 256 253 257 265 271
191 198 202 201 204 205 204 205 210 219 224 236 105 99 114 179 223 244 257 259 267 273
192 198 195 201 207 207 205 207 210 221 208 203 134 95 69 280 246 276 285 289 283 281
203 199 204 212 200 197 206 200 189 172 154 134 141 97 71 356 226 257 280 287 286 279
207 208 201 193 204 188 174 163 164 145 137 130 136 124 132 111 84 356 313 290 285 285